Starlink 5981

operational
NORAD ID: 56325 Int'l Des: 2023-058 Owner: SPXS Country: US Constellation: starlink
LEOCIRCULARRETROGRADESSO

About Starlink 5981

Description loading...

Live Position

Loading 3D Globe...

Upcoming Passes

Altitude History

Altitude vs Time

uPlot chart will show altitude changes over time

Two-Line Element Set

1 56325U 23058J 26036.00074928 -.00000517 00000-0 -35724-4 0 9996
2 56325 97.6047 38.1721 0002056 56.4850 303.6570 15.01265260153224
Epoch: Feb 5, 2026 • Age: 14 hours

Current Status

Altitude 590.4 km
Velocity 7.56 km/s
Sub-Earth Point -69.54°S, 146.78°W
Launch Date Apr 27, 2023
Age 2.7 years
Type internet

Technical Details

Classification Payload
Mass 300.00 kg
Dry Mass 260.00 kg
Total Mass 300.00 kg
Length 0.20 m
Diameter 2.80 m
Span 9.00 m
Shape Box + pan
Manufacturer SPXS
Bus Type Starlink
Phase Status In Orbit
Owner/State SPXS/US

Large Constellations

Loading constellations...